sat.trackr.live / text

‹ back to catalog

STARLINK-31807

NORAD 59639 · 2024-082J

PAYLOAD ACTIVE UNKNOWN

§ Identity

Operator
Country
US
Launch date
2024-05-03
Launch site
AFETR
Launch vehicle
Mass (kg)
RCS (m²)

Purposes: comms

External: N2YO · Heavens-Above · Gunter

§ Orbital elements

Epoch: 2026-09-21T21:10:31.857888Z

Period
94.27 min
Inclination
42.9986°
Eccentricity
0.0000473
Mean motion
15.27576491 rev/d
Perigee alt
482.7 km
Apogee alt
483.4 km
Semi-major
6,861.2 km
B*
1.0028e-5
RAAN
112.1110°
Arg perigee
255.0183°
Mean anomaly
105.0616°
Rev number
13,481

§ Raw data

STARLINK-318071 59639U 24082J   26264.88231317  .00000014  00000+0  10028-4 0  99902 59639  42.9986 112.1110 0000473 255.0183 105.0616 15.27576491134810

JSON: /api/v1/satellites/59639 · /tle

For live sub-satellite position, see the globe view (requires WebGL).

§ Visibility from observer

Set your observer location to see the next 7 days of passes ≥ 10°. The values pass through the URL so the page stays shareable.

No JS? Fill the form by hand. The geolocation button needs JavaScript.